Weather History for KCDR - October, 2011

Change the Weather History Date:

Saturday, October 22, 2011

  Actual Average Record
Temperature  
Mean Temperature 52 °F 45 °F  
Max Temperature 68 °F 61 °F 85 °F (1992)
Min Temperature 35 °F 29 °F 12 °F (1936)
Degree Days  
Heating Degree Days 13 20  
Month to date heating degree days 265 346  
Since 1 July heating degree days 399 557  
Cooling Degree Days 0 0  
Month to date cooling degree days 20 0  
Year to date cooling degree days 902 710  
Growing Degree Days 2 (Base 50)    
Moisture  
Dew Point 37 °F    
Average Humidity 67    
Maximum Humidity 100    
Minimum Humidity 34    
Precipitation  
Precipitation 0.00 in 0.03 in 0.38 in (1942)
Month to date precipitation 1.65 1.01  
Year to date precipitation 17.03 16.61  
Sea Level Pressure  
Sea Level Pressure 30.11 in    
Wind  
Wind Speed 5 mph (West)    
Max Wind Speed 17 mph    
Max Gust Speed 25 mph    
Visibility 10 miles    
Events      
T = Trace of Precipitation, MM = Missing Value Source: NWS Daily Summary

Daily Weather History Graph

Daily Weather History Graph

Search for Another Location

Airport or City:

Trip Planner

Search our weather history database for the weather conditions in past years. The results will help you decide how hot, cold, wet, or windy it might be!

Date:

Astronomy

Oct. 22, 2011 Rise Set
Actual Time 7:13 AM MDT 5:59 PM MDT
Civil Twilight 6:45 AM MDT 6:28 PM MDT
Nautical Twilight 6:12 AM MDT 7:00 PM MDT
Astronomical Twilight 5:39 AM MDT 7:33 PM MDT
Moon 2:07 AM MDT (10/22) 3:23 PM MDT (10/22)
Length of Visible Light 11h 42m
Length of Day
10h 45m
Waning Crescent, 23% of the Moon is Illuminated
Oct 22
Waning Crescent
Oct 26
New
Nov 2
First Quarter
Nov 10
Full
Nov 18
Last Quarter

Hourly Weather History & Observations

Time (MDT) Temp. Windchill Dew Point Humidity Pressure Visibility Wind Dir Wind Speed Gust Speed Precip Events Conditions
12:53 AM 39.0 °F - 37.0 °F 93% 30.18 in 10.0 mi Calm Calm - N/A   Clear
1:53 AM 39.9 °F 37.8 °F 37.9 °F 93% 30.16 in 10.0 mi South 3.5 mph - N/A   Clear
2:53 AM 39.0 °F - 37.0 °F 93% 30.16 in 10.0 mi Calm Calm - N/A   Clear
3:53 AM 37.9 °F 35.5 °F 37.0 °F 97% 30.16 in 10.0 mi SW 3.5 mph - N/A   Overcast
4:53 AM 39.0 °F - 37.0 °F 93% 30.15 in 10.0 mi Calm Calm - N/A   Overcast
5:53 AM 39.0 °F - 37.0 °F 93% 30.15 in 10.0 mi Calm Calm - N/A   Overcast
6:53 AM 37.9 °F - 36.0 °F 93% 30.15 in 10.0 mi Calm Calm - N/A   Overcast
7:53 AM 37.0 °F 34.5 °F 35.1 °F 93% 30.16 in 9.0 mi SW 3.5 mph - N/A   Clear
8:53 AM 43.0 °F 41.3 °F 39.9 °F 89% 30.16 in 10.0 mi WSW 3.5 mph - N/A   Clear
9:53 AM 54.0 °F - 42.1 °F 64% 30.13 in 10.0 mi SW 5.8 mph - N/A   Clear
10:53 AM 59.0 °F - 41.0 °F 51% 30.13 in 10.0 mi West 4.6 mph - N/A   Clear
11:53 AM 62.1 °F - 41.0 °F 46% 30.12 in 10.0 mi Calm Calm - N/A   Mostly Cloudy
12:53 PM 64.9 °F - 39.0 °F 39% 30.09 in 10.0 mi WNW 5.8 mph - N/A   Partly Cloudy
1:53 PM 66.9 °F - 39.0 °F 36% 30.06 in 10.0 mi WNW 10.4 mph - N/A   Partly Cloudy
2:53 PM 66.9 °F - 37.0 °F 33% 30.06 in 10.0 mi NW 15.0 mph 21.9 mph N/A   Clear
3:53 PM 64.0 °F - 36.0 °F 35% 30.07 in 10.0 mi WNW 11.5 mph 19.6 mph N/A   Clear
4:53 PM 63.0 °F - 37.0 °F 38% 30.07 in 10.0 mi WNW 11.5 mph - N/A   Clear
5:53 PM 60.1 °F - 37.0 °F 42% 30.07 in 10.0 mi NW 4.6 mph - N/A   Clear
6:53 PM 53.1 °F - 36.0 °F 52% 30.09 in 10.0 mi Calm Calm - N/A   Clear
7:53 PM 46.0 °F 43.9 °F 36.0 °F 68% 30.10 in 10.0 mi SSW 4.6 mph - N/A   Clear
8:53 PM 41.0 °F 36.4 °F 36.0 °F 82% 30.10 in 10.0 mi West 6.9 mph - N/A   Clear
9:53 PM 42.1 °F 37.1 °F 37.0 °F 82% 30.06 in 10.0 mi WSW 8.1 mph - N/A   Clear
10:53 PM 39.0 °F 34.0 °F 36.0 °F 89% 30.04 in 10.0 mi WSW 6.9 mph - N/A   Clear
11:53 PM 37.9 °F 32.1 °F 34.0 °F 86% 30.02 in 10.0 mi WSW 8.1 mph - N/A   Clear